Regional Weather Roundup
Issued by NWS Bismarck, ND

Home | Current Version | Previous Version | Text Only | Print | Product List | Glossary On
Versions: 1 2 3 4 5 6 7 8 9 10 11 12 13 14 15 16 17 18 19 20 21 22 23 24 25 26 27 28 29 30 31 32 33 34 35 36 37 38 39 40 41 42 43 44 45 46 47 48 49 50
000
ASUS43 KBIS 180120
RWRBIS

NWR BROADCAST TEXT
NATIONAL WEATHER SERVICE BISMARCK ND
700 PM CST WED DEC 17 2014

NOTE: "FAIR" INDICATES FEW OR NO CLOUDS BELOW 12,000 FEET WITH NO
SIGNIFICANT WEATHER AND/OR OBSTRUCTIONS TO VISIBILITY.


CITY           SKY/WX    TMP DP  RH WIND       PRES   REMARKS
WILLISTON      CLOUDY    20  13  74 SE9       30.09F WCI   9
MINOT          MOCLDY     9   5  84 SE6       30.17F WCI  -1
MINOT AFB      MOCLDY     6   5  95 SE8       30.18S WCI  -6
BISMARCK       PTCLDY    13  10  88 SE5       30.20S WCI   5
DICKINSON      CLOUDY    18  14  84 S14       30.05F WCI   4
GARRISON         N/A     10   7  87 SE8       30.16S WCI  -2
HETTINGER ARPT CLOUDY    17  14  88 SE10      30.07F WCI   5
JAMESTOWN      PTCLDY    10   6  84 SE5       30.25R WCI   2
BEACH          CLOUDY    19  19 100 SE10      30.03R WCI   8
CARRINGTON     FAIR       7   7 100 MISG      30.25S
CROSBY         CLOUDY    18  14  86 S12       30.11S WCI   5
HARVEY         FAIR       5   5 100 E8        30.21F WCI  -8
HAZEN          CLOUDY    18  10  73 SE7       30.18S WCI   8
LINTON         FAIR      16  14  93 SE9       30.20S WCI   4
MANDAN         MOCLDY    14  10  85 SE6       30.18S WCI   5
OAKES            N/A      9   7  92 SE5       30.28R WCI   0
RUGBY          FAIR       7   5  92 SE8       30.23S WCI  -6
STANLEY        CLOUDY    16  14  93 S15       30.10F WCI   1
TIOGA          CLOUDY    16  16 100 SE13      30.12S WCI   2
WATFORD CITY   CLOUDY    18  14  86 SE10      30.07S WCI   6
$$

CITY           SKY/WX    TMP DP  RH WIND       PRES   REMARKS
GRAND FORKS    PTCLDY    10   7  87 CALM      30.32S
GRAND FORKS AF PTCLDY     8   8  98 CALM      30.32S
DEVILS LAKE    PTCLDY    10   0  61 SE5       30.23F WCI   2
FARGO          CLEAR     12   8  84 E5        30.30F WCI   4
CANDO          FAIR       5   1  85 SE6       30.25S WCI  -6
CAVALIER       FAIR      10   9  92 CALM      30.32S
GWINNER        CLEAR     12  10  92 MISG      30.29S
LANGDON        FAIR       5   1  85 SE8       30.24S WCI  -8
ROLLA          FAIR       5   1  85 S6        30.22S WCI  -6
WALHALLA         N/A      9   9 100 CALM      30.31S
$$

CITY           SKY/WX    TMP DP  RH WIND       PRES   REMARKS
ABERDEEN       PTCLDY     8   4  83 S3        30.29R
MOBRIDGE       CLOUDY    19  11  70 SE12      30.16F WCI   7
BUFFALO          N/A     20  17  88 SE12      29.95F WCI   8
RAPID CITY     CLOUDY    22  20  92 NE7       30.02R WCI  13
GLASGOW        CLOUDY    23  18  81 E10       29.99S WCI  12
SIDNEY         CLOUDY    21  16  79 E10       30.08S WCI  10
WOLF POINT     CLOUDY    25  18  74 E8        30.04S WCI  16
GLENDIVE       CLOUDY    21  18  86 SE6       30.02S WCI  14
MILES CITY     CLOUDY    24  20  84 SE8       29.98S WCI  15
BAKER          CLOUDY    20  19  96 SE12      30.00S WCI   8
$$

CITY           SKY/WX    TMP DP  RH WIND       PRES   REMARKS
BILLINGS       MOCLDY    31  23  72 SW18      29.92S WCI  19
GREAT FALLS    CLEAR     30  26  85 S10       29.85S
REGINA         FLURRIES  18  14  86 S16       30.06S WCI   3
ESTEVAN        FLURRIES  16  12  86 SE12      30.12  WCI   3
$$



USA.gov is the U.S. government's official web portal to all federal, state and local government web resources and services.